QPF
0.00 0.00 0.00 0.00 0.00 0.00 0.00 0.00 0.00 0.00 0.00 0.00 0.00 0.00 0.00 0.00 0.00 0.00 0.00 0.00 0.00 0.00 0.00 0.00 0.00 0.00 0.00 0.01 0.01 0.02 0.03 0.04 0.05 0.07 0.05 0.06 0.07 0.06 0.05 0.06 0.06 0.06 0.05 0.05
0.00 0.00 0.00 0.00 0.00 0.00 0.00 0.00 0.00 0.00 0.00 0.00 0.00 0.00 0.00 0.00 0.00 0.00 0.00 0.00 0.00 0.00 0.00 0.00 0.00 0.00 0.00 0.00 0.01 0.01 0.02 0.03 0.05 0.06 0.06 0.07 0.08 0.09 0.07 0.05 0.05 0.04 0.04 0.04
0.00 0.00 0.00 0.00 0.00 0.00 0.00 0.00 0.00 0.00 0.00 0.00 0.00 0.00 0.00 0.00 0.00 0.00 0.00 0.00 0.00 0.00 0.00 0.00 0.00 0.00 0.00 0.00 0.01 0.01 0.01 0.02 0.03 0.04 0.05 0.05 0.05 0.05 0.05 0.05 0.05 0.04 0.03 0.03
0.00 0.00 0.00 0.00 0.00 0.00 0.00 0.00 0.00 0.00 0.00 0.00 0.00 0.00 0.00 0.00 0.00 0.00 0.00 0.00 0.00 0.00 0.00 0.00 0.00 0.00 0.00 0.00 0.01 0.01 0.01 0.01 0.01 0.02 0.04 0.05 0.05 0.05 0.05 0.05 0.05 0.03 0.03 0.03
0.01 0.00 0.00 0.00 0.00 0.00 0.00 0.00 0.00 0.00 0.00 0.00 0.00 0.00 0.00 0.00 0.00 0.00 0.00 0.00 0.00 0.00 0.00 0.00 0.00 0.00 0.00 0.00 0.00 0.00 0.01 0.01 0.01 0.01 0.02 0.04 0.05 0.05 0.05 0.06 0.05 0.03 0.03 0.04
0.01 0.01 0.00 0.00 0.00 0.00 0.00 0.00 0.00 0.00 0.00 0.00 0.00 0.00 0.00 0.00 0.00 0.00 0.00 0.00 0.00 0.00 0.00 0.00 0.00 0.00 0.00 0.00 0.00 0.00 0.00 0.01 0.01 0.01 0.02 0.03 0.04 0.04 0.04 0.05 0.04 0.04 0.04 0.04
0.01 0.01 0.00 0.00 0.00 0.00 0.00 0.00 0.00 0.00 0.00 0.00 0.00 0.00 0.00 0.00 0.00 0.00 0.00 0.00 0.00 0.00 0.00 0.00 0.00 0.00 0.00 0.00 0.00 0.00 0.00 0.00 0.00 0.00 0.00 0.01 0.01 0.02 0.02 0.02 0.03 0.03 0.03 0.03
0.01 0.01 0.00 0.00 0.00 0.00 0.00 0.00 0.00 0.00 0.00 0.00 0.00 0.00 0.00 0.00 0.00 0.00 0.00 0.00 0.00 0.00 0.00 0.00 0.00 0.00 0.00 0.00 0.00 0.00 0.00 0.00 0.00 0.00 0.00 0.00 0.01 0.01 0.01 0.01 0.01 0.02 0.02 0.02
0.00 0.00 0.00 0.00 0.00 0.00 0.00 0.00 0.00 0.00 0.00 0.00 0.00 0.00 0.00 0.00 0.00 0.00 0.00 0.00 0.00 0.00 0.00 0.00 0.00 0.00 0.00 0.00 0.00 0.00 0.00 0.00 0.00 0.00 0.00 0.00 0.00 0.01 0.01 0.01 0.01 0.02 0.02 0.02
0.00 0.00 0.00 0.00 0.00 0.00 0.00 0.00 0.00 0.00 0.00 0.00 0.00 0.00 0.00 0.00 0.00 0.00 0.00 0.00 0.00 0.00 0.00 0.00 0.00 0.00 0.00 0.00 0.00 0.00 0.00 0.00 0.00 0.00 0.00 0.00 0.00 0.00 0.01 0.01 0.01 0.02 0.02 0.02
0.00 0.00 0.00 0.00 0.00 0.00 0.00 0.00 0.00 0.00 0.00 0.00 0.00 0.00 0.00 0.00 0.00 0.00 0.00 0.00 0.00 0.00 0.00 0.00 0.00 0.00 0.00 0.00 0.00 0.00 0.00 0.00 0.00 0.00 0.00 0.00 0.00 0.00 0.01 0.01 0.02 0.02 0.01 0.01
0.00 0.00 0.00 0.00 0.00 0.00 0.00 0.00 0.00 0.00 0.00 0.00 0.00 0.00 0.00 0.00 0.00 0.00 0.00 0.00 0.00 0.00 0.00 0.00 0.00 0.00 0.00 0.00 0.00 0.00 0.01 0.01 0.00 0.00 0.00 0.00 0.00 0.00 0.01 0.01 0.02 0.01 0.01 0.01
0.00 0.00 0.00 0.00 0.00 0.00 0.00 0.00 0.00 0.00 0.00 0.00 0.00 0.00 0.00 0.00 0.00 0.00 0.00 0.00 0.00 0.00 0.00 0.00 0.00 0.00 0.00 0.00 0.01 0.01 0.01 0.01 0.01 0.00 0.00 0.00 0.00 0.00 0.00 0.01 0.01 0.01 0.01 0.01
0.00 0.00 0.00 0.00 0.00 0.00 0.00 0.00 0.00 0.00 0.00 0.00 0.00 0.00 0.00 0.00 0.00 0.00 0.00 0.00 0.00 0.00 0.00 0.00 0.00 0.00 0.00 0.01 0.01 0.01 0.01 0.01 0.01 0.01 0.01 0.00 0.00 0.00 0.00 0.00 0.00 0.00 0.00 0.01
0.00 0.00 0.00 0.00 0.00 0.00 0.00 0.00 0.00 0.00 0.00 0.00 0.00 0.00 0.00 0.00 0.00 0.00 0.00 0.00 0.00 0.00 0.00 0.00 0.00 0.00 0.01 0.01 0.01 0.01 0.01 0.01 0.01 0.01 0.01 0.01 0.00 0.00 0.00 0.00 0.00 0.00 0.00 0.00
0.00 0.00 0.00 0.00 0.00 0.00 0.00 0.00 0.00 0.00 0.00 0.00 0.00 0.00 0.00 0.00 0.00 0.00 0.00 0.00 0.00 0.00 0.00 0.00 0.00 0.01 0.01 0.01 0.01 0.01 0.01 0.01 0.01 0.01 0.00 0.00 0.00 0.00 0.00 0.00 0.00 0.00 0.00 0.00
0.00 0.00 0.00 0.00 0.00 0.00 0.00 0.00 0.00 0.00 0.00 0.00 0.00 0.00 0.00 0.00 0.00 0.00 0.00 0.00 0.00 0.00 0.00 0.00 0.01 0.01 0.01 0.01 0.01 0.00 0.00 0.01 0.01 0.01 0.01 0.01 0.00 0.00 0.00 0.00 0.00 0.00 0.00 0.00
0.00 0.00 0.00 0.00 0.00 0.00 0.00 0.00 0.00 0.00 0.00 0.00 0.00 0.00 0.00 0.00 0.00 0.00 0.00 0.00 0.00 0.00 0.00 0.01 0.01 0.01 0.01 0.01 0.00 0.00 0.00 0.00 0.00 0.01 0.01 0.01 0.01 0.00 0.00 0.00 0.00 0.00 0.00 0.00
0.00 0.00 0.00 0.00 0.00 0.00 0.00 0.00 0.00 0.00 0.00 0.00 0.00 0.00 0.00 0.00 0.00 0.00 0.00 0.00 0.00 0.00 0.01 0.01 0.01 0.00 0.00 0.00 0.00 0.00 0.00 0.00 0.00 0.00 0.00 0.01 0.01 0.01 0.01 0.00 0.00 0.00 0.00 0.00
0.00 0.00 0.00 0.00 0.00 0.00 0.00 0.00 0.00 0.00 0.00 0.00 0.00 0.00 0.00 0.00 0.00 0.00 0.00 0.00 0.00 0.01 0.01 0.00 0.00 0.00 0.00 0.00 0.00 0.00 0.00 0.00 0.00 0.00 0.01 0.01 0.01 0.01 0.01 0.01 0.00 0.00 0.00 0.00
0.00 0.00 0.00 0.00 0.00 0.00 0.00 0.00 0.00 0.00 0.00 0.00 0.00 0.00 0.00 0.00 0.00 0.00 0.00 0.00 0.00 0.00 0.00 0.00 0.00 0.00 0.00 0.00 0.00 0.00 0.00 0.00 0.00 0.00 0.00 0.01 0.01 0.01 0.01 0.00 0.01 0.00 0.00 0.00
0.00 0.00 0.00 0.00 0.00 0.00 0.00 0.00 0.00 0.00 0.00 0.00 0.00 0.00 0.00 0.00 0.00 0.00 0.00 0.00 0.00 0.00 0.00 0.00 0.00 0.00 0.00 0.00 0.00 0.00 0.00 0.00 0.00 0.00 0.00 0.01 0.01 0.01 0.01 0.01 0.00 0.00 0.00 0.00
0.00 0.00 0.00 0.00 0.00 0.00 0.00 0.00 0.00 0.00 0.00 0.00 0.00 0.00 0.00 0.00 0.00 0.00 0.00 0.00 0.00 0.00 0.00 0.00 0.00 0.00 0.00 0.00 0.00 0.00 0.00 0.00 0.00 0.00 0.00 0.01 0.01 0.01 0.01 0.01 0.01 0.00 0.00 0.00
0.00 0.00 0.00 0.00 0.00 0.00 0.00 0.00 0.00 0.00 0.00 0.00 0.00 0.00 0.00 0.01 0.01 0.00 0.00 0.00 0.00 0.00 0.00 0.00 0.00 0.00 0.00 0.00 0.00 0.00 0.00 0.00 0.00 0.00 0.00 0.01 0.01 0.01 0.01 0.01 0.01 0.01 0.00 0.00
0.01 0.01 0.01 0.01 0.01 0.00 0.00 0.00 0.00 0.00 0.00 0.00 0.00 0.00 0.01 0.01 0.00 0.00 0.00 0.00 0.00 0.00 0.00 0.00 0.00 0.00 0.00 0.00 0.00 0.00 0.00 0.00 0.00 0.00 0.01 0.01 0.01 0.01 0.01 0.01 0.01 0.01 0.00 0.00
0.01 0.01 0.01 0.01 0.01 0.00 0.00 0.00 0.00 0.00 0.00 0.00 0.00 0.00 0.01 0.01 0.00 0.00 0.00 0.00 0.00 0.00 0.00 0.00 0.00 0.00 0.00 0.00 0.00 0.00 0.00 0.00 0.00 0.01 0.01 0.01 0.01 0.01 0.01 0.01 0.01 0.01 0.01 0.00
0.00 0.00 0.00 0.00 0.00 0.00 0.00 0.00 0.00 0.00 0.00 0.00 0.00 0.00 0.01 0.01 0.01 0.01 0.01 0.00 0.00 0.00 0.00 0.00 0.00 0.00 0.00 0.00 0.00 0.00 0.00 0.00 0.01 0.01 0.01 0.01 0.01 0.02 0.02 0.01 0.01 0.01 0.00 0.00
MSLP
1019.55 1019.44 1019.35 1019.27 1019.17 1019.02 1018.77 1018.40 1017.90 1017.27 1016.56 1015.83 1015.14 1014.59 1014.23 1014.11 1014.24 1014.60 1015.16 1015.84 1016.57 1017.28 1017.89 1018.36 1018.67 1018.82 1018.81 1018.68 1018.47 1018.21 1017.94 1017.67 1017.39 1017.10 1016.79 1016.42 1015.97 1015.42 1014.76 1013.98 1013.11 1012.17 1011.20 1010.26
1019.48 1019.14 1018.77 1018.37 1017.95 1017.50 1017.02 1016.50 1015.95 1015.37 1014.79 1014.25 1013.80 1013.47 1013.31 1013.34 1013.58 1013.99 1014.56 1015.24 1015.95 1016.65 1017.28 1017.80 1018.18 1018.42 1018.51 1018.48 1018.36 1018.18 1017.96 1017.72 1017.48 1017.22 1016.96 1016.65 1016.29 1015.85 1015.32 1014.70 1013.98 1013.19 1012.35 1011.52
1019.44 1018.86 1018.19 1017.47 1016.73 1016.01 1015.31 1014.67 1014.08 1013.56 1013.12 1012.78 1012.55 1012.46 1012.50 1012.70 1013.04 1013.51 1014.09 1014.74 1015.43 1016.11 1016.74 1017.28 1017.72 1018.03 1018.21 1018.28 1018.24 1018.13 1017.96 1017.76 1017.56 1017.34 1017.12 1016.89 1016.63 1016.31 1015.93 1015.46 1014.91 1014.28 1013.59 1012.88
1019.45 1018.64 1017.70 1016.70 1015.68 1014.72 1013.85 1013.10 1012.49 1012.04 1011.74 1011.59 1011.58 1011.69 1011.92 1012.25 1012.68 1013.19 1013.77 1014.39 1015.04 1015.68 1016.29 1016.84 1017.31 1017.67 1017.92 1018.06 1018.10 1018.05 1017.93 1017.78 1017.61 1017.44 1017.28 1017.12 1016.95 1016.75 1016.50 1016.19 1015.79 1015.32 1014.77 1014.18
1019.50 1018.49 1017.34 1016.11 1014.89 1013.75 1012.75 1011.94 1011.34 1010.95 1010.78 1010.78 1010.95 1011.23 1011.60 1012.04 1012.53 1013.06 1013.61 1014.19 1014.79 1015.38 1015.95 1016.49 1016.96 1017.36 1017.66 1017.85 1017.94 1017.94 1017.87 1017.76 1017.63 1017.50 1017.38 1017.29 1017.20 1017.11 1016.98 1016.80 1016.54 1016.20 1015.78 1015.29
1019.54 1018.39 1017.08 1015.71 1014.36 1013.12 1012.06 1011.23 1010.65 1010.34 1010.26 1010.39 1010.68 1011.07 1011.54 1012.04 1012.55 1013.07 1013.58 1014.11 1014.64 1015.17 1015.70 1016.21 1016.68 1017.09 1017.41 1017.64 1017.77 1017.80 1017.77 1017.69 1017.59 1017.50 1017.42 1017.38 1017.36 1017.35 1017.32 1017.24 1017.09 1016.85 1016.52 1016.12
1019.47 1018.24 1016.87 1015.45 1014.06 1012.80 1011.74 1010.93 1010.40 1010.15 1010.14 1010.34 1010.70 1011.15 1011.65 1012.16 1012.66 1013.14 1013.61 1014.08 1014.54 1015.02 1015.50 1015.98 1016.43 1016.84 1017.17 1017.41 1017.56 1017.63 1017.62 1017.56 1017.48 1017.42 1017.38 1017.38 1017.41 1017.45 1017.48 1017.48 1017.40 1017.24 1016.97 1016.62
1019.18 1017.96 1016.61 1015.22 1013.88 1012.68 1011.69 1010.95 1010.48 1010.27 1010.31 1010.54 1010.91 1011.36 1011.84 1012.32 1012.77 1013.20 1013.61 1014.02 1014.43 1014.86 1015.30 1015.74 1016.17 1016.56 1016.89 1017.14 1017.30 1017.38 1017.39 1017.35 1017.30 1017.25 1017.24 1017.27 1017.33 1017.41 1017.48 1017.51 1017.48 1017.37 1017.15 1016.84
1018.59 1017.43 1016.19 1014.92 1013.72 1012.65 1011.78 1011.13 1010.73 1010.57 1010.63 1010.84 1011.18 1011.58 1012.00 1012.41 1012.80 1013.16 1013.52 1013.87 1014.23 1014.61 1015.02 1015.44 1015.85 1016.23 1016.55 1016.80 1016.97 1017.06 1017.08 1017.06 1017.02 1017.00 1017.01 1017.05 1017.13 1017.24 1017.33 1017.39 1017.38 1017.30 1017.11 1016.84
1017.65 1016.62 1015.54 1014.47 1013.47 1012.59 1011.88 1011.36 1011.04 1010.92 1010.97 1011.15 1011.42 1011.73 1012.06 1012.38 1012.69 1012.99 1013.28 1013.58 1013.91 1014.26 1014.64 1015.04 1015.44 1015.80 1016.12 1016.36 1016.53 1016.63 1016.67 1016.67 1016.66 1016.66 1016.69 1016.76 1016.85 1016.97 1017.08 1017.15 1017.16 1017.09 1016.93 1016.70
1016.38 1015.53 1014.67 1013.85 1013.09 1012.44 1011.92 1011.55 1011.32 1011.23 1011.26 1011.38 1011.57 1011.78 1012.00 1012.23 1012.45 1012.67 1012.90 1013.16 1013.46 1013.79 1014.15 1014.53 1014.90 1015.25 1015.56 1015.80 1015.97 1016.09 1016.15 1016.18 1016.21 1016.24 1016.30 1016.40 1016.52 1016.64 1016.76 1016.84 1016.86 1016.81 1016.68 1016.48
1014.87 1014.23 1013.63 1013.07 1012.59 1012.19 1011.88 1011.66 1011.52 1011.47 1011.48 1011.54 1011.64 1011.74 1011.86 1011.98 1012.12 1012.27 1012.45 1012.66 1012.92 1013.22 1013.56 1013.91 1014.26 1014.59 1014.88 1015.12 1015.30 1015.43 1015.53 1015.61 1015.68 1015.76 1015.87 1016.00 1016.15 1016.29 1016.42 1016.51 1016.54 1016.50 1016.39 1016.22
1013.28 1012.86 1012.52 1012.25 1012.04 1011.88 1011.78 1011.71 1011.68 1011.66 1011.66 1011.67 1011.68 1011.69 1011.71 1011.74 1011.79 1011.87 1011.99 1012.16 1012.37 1012.63 1012.92 1013.23 1013.54 1013.84 1014.11 1014.34 1014.53 1014.69 1014.83 1014.96 1015.09 1015.24 1015.40 1015.57 1015.76 1015.93 1016.07 1016.16 1016.20 1016.17 1016.08 1015.93
1011.77 1011.57 1011.48 1011.47 1011.52 1011.60 1011.69 1011.76 1011.82 1011.85 1011.84 1011.81 1011.76 1011.70 1011.63 1011.58 1011.56 1011.57 1011.62 1011.73 1011.88 1012.08 1012.31 1012.55 1012.81 1013.06 1013.29 1013.51 1013.71 1013.89 1014.08 1014.26 1014.46 1014.68 1014.90 1015.13 1015.35 1015.55 1015.70 1015.80 1015.84 1015.82 1015.73 1015.60
1010.49 1010.49 1010.63 1010.85 1011.12 1011.40 1011.65 1011.86 1012.00 1012.07 1012.08 1012.03 1011.93 1011.81 1011.69 1011.57 1011.48 1011.43 1011.42 1011.45 1011.52 1011.64 1011.78 1011.94 1012.12 1012.30 1012.49 1012.68 1012.87 1013.08 1013.31 1013.56 1013.82 1014.10 1014.39 1014.67 1014.93 1015.15 1015.31 1015.41 1015.44 1015.41 1015.32 1015.18
1009.56 1009.73 1010.05 1010.46 1010.90 1011.33 1011.72 1012.02 1012.23 1012.35 1012.37 1012.32 1012.20 1012.06 1011.89 1011.73 1011.59 1011.47 1011.39 1011.34 1011.33 1011.34 1011.38 1011.44 1011.52 1011.63 1011.75 1011.91 1012.09 1012.31 1012.57 1012.87 1013.19 1013.53 1013.87 1014.19 1014.48 1014.71 1014.88 1014.97 1014.99 1014.93 1014.83 1014.68
1009.02 1009.32 1009.77 1010.30 1010.86 1011.39 1011.86 1012.23 1012.49 1012.64 1012.69 1012.65 1012.54 1012.39 1012.21 1012.02 1011.84 1011.68 1011.53 1011.40 1011.29 1011.20 1011.13 1011.09 1011.07 1011.08 1011.14 1011.25 1011.41 1011.63 1011.91 1012.24 1012.60 1012.98 1013.36 1013.71 1014.01 1014.24 1014.40 1014.48 1014.47 1014.40 1014.27 1014.11
1008.86 1009.24 1009.76 1010.35 1010.96 1011.53 1012.03 1012.43 1012.72 1012.90 1012.97 1012.95 1012.86 1012.72 1012.55 1012.36 1012.16 1011.96 1011.77 1011.57 1011.38 1011.20 1011.03 1010.88 1010.76 1010.69 1010.68 1010.74 1010.88 1011.09 1011.37 1011.71 1012.09 1012.49 1012.88 1013.24 1013.53 1013.76 1013.90 1013.96 1013.93 1013.84 1013.69 1013.52
1009.02 1009.42 1009.95 1010.53 1011.13 1011.69 1012.17 1012.57 1012.85 1013.04 1013.12 1013.13 1013.07 1012.96 1012.81 1012.64 1012.45 1012.24 1012.02 1011.78 1011.53 1011.28 1011.03 1010.80 1010.61 1010.48 1010.41 1010.42 1010.53 1010.72 1010.99 1011.32 1011.70 1012.09 1012.48 1012.82 1013.10 1013.31 1013.43 1013.46 1013.41 1013.31 1013.15 1012.97
1009.37 1009.75 1010.23 1010.76 1011.29 1011.79 1012.22 1012.56 1012.83 1013.00 1013.09 1013.12 1013.09 1013.02 1012.91 1012.78 1012.61 1012.42 1012.20 1011.95 1011.67 1011.39 1011.10 1010.83 1010.59 1010.41 1010.31 1010.30 1010.37 1010.55 1010.80 1011.11 1011.47 1011.84 1012.19 1012.51 1012.76 1012.93 1013.03 1013.04 1012.99 1012.87 1012.72 1012.55
1009.80 1010.12 1010.52 1010.95 1011.38 1011.77 1012.12 1012.40 1012.61 1012.76 1012.85 1012.89 1012.89 1012.87 1012.81 1012.72 1012.60 1012.45 1012.26 1012.03 1011.77 1011.49 1011.20 1010.93 1010.69 1010.50 1010.39 1010.36 1010.43 1010.59 1010.82 1011.10 1011.43 1011.76 1012.07 1012.35 1012.56 1012.70 1012.77 1012.77 1012.71 1012.60 1012.46 1012.31
1010.19 1010.43 1010.72 1011.03 1011.34 1011.62 1011.87 1012.06 1012.22 1012.33 1012.41 1012.47 1012.51 1012.52 1012.52 1012.49 1012.43 1012.34 1012.20 1012.03 1011.81 1011.58 1011.33 1011.09 1010.89 1010.73 1010.64 1010.62 1010.69 1010.84 1011.05 1011.31 1011.60 1011.88 1012.15 1012.37 1012.54 1012.65 1012.69 1012.68 1012.62 1012.52 1012.40 1012.27
1010.44 1010.59 1010.78 1010.98 1011.17 1011.34 1011.49 1011.61 1011.71 1011.79 1011.86 1011.93 1012.00 1012.06 1012.11 1012.15 1012.16 1012.13 1012.07 1011.97 1011.84 1011.67 1011.50 1011.33 1011.19 1011.09 1011.04 1011.06 1011.15 1011.30 1011.50 1011.73 1011.98 1012.22 1012.43 1012.61 1012.73 1012.80 1012.82 1012.79 1012.72 1012.63 1012.53 1012.42
1010.48 1010.57 1010.67 1010.78 1010.87 1010.96 1011.03 1011.09 1011.15 1011.22 1011.29 1011.37 1011.47 1011.57 1011.68 1011.78 1011.86 1011.92 1011.94 1011.93 1011.88 1011.82 1011.74 1011.66 1011.61 1011.58 1011.60 1011.67 1011.78 1011.94 1012.13 1012.34 1012.55 1012.74 1012.91 1013.03 1013.11 1013.13 1013.12 1013.07 1013.00 1012.90 1012.81 1012.71
1010.28 1010.32 1010.38 1010.42 1010.47 1010.50 1010.53 1010.57 1010.62 1010.68 1010.77 1010.88 1011.02 1011.17 1011.34 1011.50 1011.65 1011.79 1011.90 1011.98 1012.03 1012.06 1012.09 1012.11 1012.15 1012.20 1012.29 1012.41 1012.56 1012.73 1012.92 1013.10 1013.28 1013.42 1013.53 1013.60 1013.63 1013.61 1013.56 1013.48 1013.38 1013.27 1013.17 1013.06
1009.84 1009.87 1009.90 1009.93 1009.96 1009.99 1010.03 1010.08 1010.15 1010.25 1010.37 1010.53 1010.72 1010.93 1011.15 1011.38 1011.60 1011.81 1012.00 1012.17 1012.32 1012.45 1012.57 1012.68 1012.81 1012.94 1013.09 1013.26 1013.43 1013.62 1013.79 1013.95 1014.09 1014.19 1014.24 1014.25 1014.22 1014.15 1014.05 1013.93 1013.79 1013.65 1013.52 1013.38
1009.16 1009.21 1009.26 1009.32 1009.38 1009.45 1009.53 1009.63 1009.76 1009.92 1010.12 1010.34 1010.59 1010.87 1011.16 1011.45 1011.74 1012.02 1012.29 1012.53 1012.76 1012.97 1013.17 1013.37 1013.56 1013.76 1013.96 1014.16 1014.35 1014.53 1014.69 1014.81 1014.90 1014.95 1014.94 1014.89 1014.80 1014.66 1014.51 1014.33 1014.15 1013.96 1013.78 1013.61
Thickness
5494 5498 5497 5499 5502 5495 5490 5493 5493 5509 5509 5530 5526 5521 5520 5517 5515 5513 5511 5508 5505 5502 5498 5496 5495 5494 5493 5493 5492 5493 5493 5493 5493 5494 5495 5497 5498 5499 5501 5503 5505 5506 5507 5509
5490 5497 5493 5498 5506 5501 5500 5499 5500 5506 5516 5529 5522 5517 5514 5512 5511 5510 5509 5506 5503 5499 5496 5493 5491 5489 5488 5487 5487 5486 5486 5486 5486 5487 5488 5488 5490 5491 5493 5494 5495 5497 5498 5499
5486 5488 5495 5504 5518 5512 5507 5506 5505 5508 5522 5524 5519 5516 5514 5511 5508 5507 5506 5503 5500 5497 5494 5491 5488 5486 5483 5482 5481 5480 5480 5480 5480 5481 5481 5482 5483 5484 5485 5485 5486 5487 5488 5490
5476 5481 5493 5526 5527 5519 5514 5515 5511 5516 5518 5516 5516 5514 5511 5508 5506 5504 5502 5500 5498 5494 5491 5488 5485 5482 5480 5478 5476 5475 5474 5474 5474 5474 5474 5474 5474 5475 5476 5477 5478 5478 5479 5480
5471 5469 5489 5517 5520 5513 5509 5515 5518 5514 5515 5512 5510 5508 5509 5509 5505 5502 5500 5498 5495 5491 5488 5484 5481 5478 5475 5473 5471 5469 5469 5468 5467 5467 5467 5467 5466 5467 5467 5468 5469 5469 5470 5469
5465 5469 5485 5523 5520 5514 5512 5512 5520 5511 5509 5506 5502 5500 5508 5509 5503 5499 5496 5493 5489 5486 5482 5479 5476 5473 5470 5468 5465 5464 5464 5463 5462 5461 5460 5459 5459 5459 5459 5459 5459 5459 5459 5458
5463 5465 5487 5510 5509 5508 5503 5515 5517 5508 5505 5500 5495 5500 5502 5500 5497 5494 5491 5488 5484 5480 5476 5474 5471 5468 5465 5463 5461 5461 5459 5457 5456 5454 5453 5452 5451 5451 5450 5449 5449 5448 5447 5447
5463 5463 5488 5508 5498 5498 5506 5508 5507 5504 5500 5496 5494 5494 5493 5492 5490 5488 5485 5482 5478 5474 5471 5468 5465 5462 5460 5459 5458 5455 5453 5451 5449 5447 5445 5444 5442 5441 5440 5439 5438 5437 5437 5436
5478 5495 5504 5498 5498 5499 5496 5495 5496 5495 5494 5491 5489 5488 5487 5486 5484 5481 5478 5475 5472 5468 5466 5462 5460 5457 5455 5455 5452 5449 5446 5443 5441 5439 5437 5435 5433 5432 5430 5429 5428 5428 5427 5427
5469 5487 5492 5491 5489 5490 5488 5487 5488 5487 5486 5484 5482 5482 5480 5478 5477 5474 5472 5469 5466 5462 5459 5457 5455 5452 5451 5449 5445 5442 5439 5436 5433 5431 5429 5427 5425 5423 5422 5421 5419 5419 5419 5419
5465 5480 5481 5488 5487 5488 5486 5483 5480 5480 5478 5477 5475 5475 5474 5473 5471 5469 5467 5464 5460 5456 5454 5453 5450 5447 5445 5441 5438 5434 5431 5429 5426 5424 5421 5419 5418 5417 5416 5415 5413 5412 5412 5410
5481 5486 5479 5485 5487 5484 5481 5479 5477 5475 5475 5473 5470 5470 5469 5468 5466 5463 5461 5457 5454 5451 5449 5447 5443 5441 5438 5435 5432 5428 5425 5422 5420 5417 5415 5413 5411 5410 5410 5409 5409 5407 5406 5404
5482 5482 5477 5479 5478 5477 5474 5473 5472 5470 5469 5468 5468 5465 5464 5462 5460 5457 5454 5451 5449 5447 5444 5440 5437 5434 5432 5429 5426 5422 5420 5417 5414 5411 5408 5406 5404 5403 5402 5402 5401 5400 5398 5396
5471 5468 5467 5470 5470 5470 5467 5466 5465 5463 5462 5461 5460 5459 5457 5455 5453 5450 5449 5447 5444 5440 5437 5434 5431 5429 5426 5423 5420 5417 5414 5412 5409 5406 5403 5401 5399 5397 5395 5394 5392 5390 5389 5387
5462 5460 5462 5464 5463 5461 5459 5456 5455 5454 5454 5454 5452 5450 5449 5447 5446 5445 5443 5440 5436 5433 5430 5427 5424 5423 5420 5416 5413 5411 5408 5405 5403 5400 5397 5394 5392 5389 5387 5385 5383 5381 5379 5378
5455 5453 5452 5451 5453 5453 5451 5449 5447 5448 5448 5447 5444 5443 5441 5440 5438 5437 5435 5431 5428 5426 5424 5421 5419 5417 5413 5410 5407 5405 5402 5400 5397 5393 5390 5387 5384 5382 5379 5377 5374 5372 5370 5368
5444 5445 5444 5444 5445 5445 5444 5443 5442 5442 5441 5439 5438 5436 5433 5430 5429 5427 5426 5423 5421 5419 5417 5414 5412 5410 5406 5404 5401 5398 5395 5393 5391 5387 5382 5380 5376 5374 5371 5368 5366 5363 5361 5359
5440 5441 5441 5440 5439 5438 5438 5437 5435 5434 5433 5432 5430 5426 5424 5421 5420 5420 5418 5415 5411 5409 5407 5406 5404 5401 5399 5396 5393 5390 5387 5384 5381 5378 5375 5371 5368 5365 5362 5359 5356 5354 5351 5349
5431 5431 5431 5431 5430 5430 5430 5429 5428 5426 5424 5422 5419 5417 5416 5414 5412 5410 5408 5405 5402 5400 5400 5398 5397 5394 5391 5388 5386 5382 5379 5376 5372 5369 5366 5364 5360 5356 5352 5349 5346 5344 5341 5339
5422 5422 5422 5421 5421 5420 5420 5420 5419 5417 5415 5412 5410 5408 5406 5405 5402 5400 5398 5396 5396 5394 5393 5390 5388 5385 5383 5380 5378 5374 5370 5367 5364 5360 5356 5353 5350 5346 5343 5340 5337 5334 5332 5329
5413 5413 5413 5412 5412 5412 5411 5410 5408 5407 5406 5404 5401 5400 5399 5397 5394 5391 5389 5389 5389 5387 5384 5383 5379 5377 5375 5372 5370 5365 5362 5358 5355 5351 5347 5344 5340 5336 5333 5330 5327 5324 5322 5319
5402 5402 5402 5402 5402 5403 5403 5401 5400 5398 5397 5395 5393 5391 5389 5387 5385 5383 5382 5382 5382 5380 5377 5374 5371 5370 5367 5365 5360 5356 5353 5349 5346 5341 5338 5334 5331 5327 5323 5320 5317 5314 5312 5309
5393 5393 5393 5394 5393 5393 5393 5392 5391 5389 5388 5387 5385 5383 5381 5380 5378 5376 5376 5375 5373 5372 5369 5366 5365 5363 5360 5355 5351 5347 5344 5340 5337 5333 5329 5325 5322 5318 5314 5311 5308 5305 5301 5299
5384 5385 5385 5384 5383 5382 5383 5385 5383 5381 5380 5379 5377 5376 5373 5371 5370 5369 5368 5368 5366 5364 5360 5359 5357 5355 5351 5345 5341 5337 5334 5331 5328 5324 5320 5316 5312 5308 5305 5302 5298 5295 5292 5289
5376 5375 5375 5374 5374 5376 5376 5376 5373 5372 5370 5369 5369 5368 5366 5364 5362 5361 5359 5358 5357 5355 5351 5350 5348 5345 5340 5336 5332 5329 5326 5323 5319 5315 5311 5307 5303 5299 5296 5293 5289 5286 5283 5280
5367 5368 5369 5369 5369 5369 5368 5366 5365 5364 5362 5361 5361 5360 5358 5355 5353 5351 5349 5348 5346 5345 5342 5339 5337 5334 5330 5327 5323 5320 5318 5315 5311 5307 5303 5299 5295 5291 5287 5284 5280 5277 5274 5271
5360 5360 5360 5360 5361 5360 5359 5358 5357 5357 5355 5354 5353 5352 5349 5347 5344 5342 5341 5339 5337 5335 5332 5330 5327 5325 5321 5318 5315 5312 5309 5306 5303 5299 5295 5291 5287 5283 5279 5276 5272 5269 5266 5264